Location: Byszew
(52.1813°N, 19.2693°E)
Time: 09:54:00
(UTC+00:00)

SPROUT - Pass Details

Date: 10 July 2022
Orbit: 588 x 598 km, 97.9° (Epoch: 17 August)

Event Time Altitude Azimuth Distance (km) Brightness Sun altitude
Exits shadow 22:41:05 16° 129° (SE) 1,544 ? -15.7°
Maximum altitude 22:43:58 39° 67° (ENE) 890 ? -15.7°
Drops below altitude 10° 22:47:53 10° 358° (N) 1,937 ? -15.7°
Sets 22:50:09 0° 351° (N) 2,845 ? -15.7°
